Time,TemperatureF,DewpointF,PressureIn,WindDirection,WindDirectionDegrees,WindSpeedMPH,WindSpeedGustMPH,Humidity,HourlyPrecipIn,Conditions,Clouds,dailyrainin,SolarRadiationWatts/m^2,SoftwareType,DateUTC
2013-01-25 00:02:00,55.0,36.0,-100.00,West,278,6.0,15.0,48,0.00,,,0.00,0.000000,,2013-01-25 07:02:00,
2013-01-25 00:11:00,55.0,36.0,-100.00,West,278,6.0,15.0,48,0.00,,,0.00,0.000000,,2013-01-25 07:11:00,
2013-01-25 00:21:00,55.0,36.0,-100.00,West,278,6.0,15.0,48,0.00,,,0.00,0.000000,,2013-01-25 07:21:00,
2013-01-25 00:52:00,54.0,37.0,-100.00,North,353,0.0,15.0,53,0.00,,,0.00,0.000000,,2013-01-25 07:52:00,
2013-01-25 01:02:00,54.0,37.0,-100.00,North,353,0.0,15.0,53,0.00,,,0.00,0.000000,,2013-01-25 08:02:00,
2013-01-25 01:11:00,54.0,37.0,-100.00,North,353,0.0,15.0,53,0.00,,,0.00,0.000000,,2013-01-25 08:11:00,
2013-01-25 01:21:00,54.0,37.0,-100.00,North,353,0.0,15.0,53,0.00,,,0.00,0.000000,,2013-01-25 08:21:00,
2013-01-25 01:52:00,53.0,37.0,-100.00,North,353,0.0,5.0,55,0.00,,,0.00,0.000000,,2013-01-25 08:52:00,
2013-01-25 02:02:00,53.0,37.0,-100.00,North,353,0.0,5.0,55,0.00,,,0.00,0.000000,,2013-01-25 09:02:00,
2013-01-25 02:11:00,53.0,37.0,-100.00,North,353,0.0,5.0,55,0.00,,,0.00,0.000000,,2013-01-25 09:11:00,
2013-01-25 02:21:00,53.0,37.0,-100.00,North,353,0.0,5.0,55,0.00,,,0.00,0.000000,,2013-01-25 09:21:00,
2013-01-25 02:52:00,53.0,36.0,-100.00,NNE,13,5.0,11.0,52,0.00,,,0.00,0.000000,,2013-01-25 09:52:00,
2013-01-25 03:02:00,53.0,36.0,-100.00,NNE,13,5.0,11.0,52,0.00,,,0.00,0.000000,,2013-01-25 10:02:00,
2013-01-25 03:12:00,53.0,36.0,-100.00,NNE,13,5.0,11.0,52,0.00,,,0.00,0.000000,,2013-01-25 10:12:00,
2013-01-25 03:21:00,53.0,36.0,-100.00,NNE,13,5.0,11.0,52,0.00,,,0.00,0.000000,,2013-01-25 10:21:00,
2013-01-25 03:52:00,52.0,34.0,-100.00,NW,323,7.0,12.0,51,0.00,,,0.00,0.000000,,2013-01-25 10:52:00,
2013-01-25 04:02:00,52.0,34.0,-100.00,NW,323,7.0,12.0,51,0.00,,,0.00,0.000000,,2013-01-25 11:02:00,
2013-01-25 04:11:00,52.0,34.0,-100.00,NW,323,7.0,12.0,51,0.00,,,0.00,0.000000,,2013-01-25 11:11:00,
2013-01-25 04:22:00,52.0,34.0,-100.00,NW,323,7.0,12.0,51,0.00,,,0.00,0.000000,,2013-01-25 11:22:00,
2013-01-25 04:52:00,50.0,36.0,-100.00,NNE,24,0.0,13.0,59,0.00,,,0.00,0.000000,,2013-01-25 11:52:00,
2013-01-25 05:02:00,50.0,36.0,-100.00,NNE,24,0.0,13.0,59,0.00,,,0.00,0.000000,,2013-01-25 12:02:00,
2013-01-25 05:11:00,50.0,36.0,-100.00,NNE,24,0.0,13.0,59,0.00,,,0.00,0.000000,,2013-01-25 12:11:00,
2013-01-25 05:22:00,50.0,36.0,-100.00,NNE,24,0.0,13.0,59,0.00,,,0.00,0.000000,,2013-01-25 12:22:00,
2013-01-25 05:53:00,51.0,39.0,-100.00,NE,53,0.0,15.0,63,0.00,,,0.00,0.000000,,2013-01-25 12:53:00,
2013-01-25 06:02:00,51.0,39.0,-100.00,NE,53,0.0,15.0,63,0.00,,,0.00,0.000000,,2013-01-25 13:02:00,
2013-01-25 06:11:00,51.0,39.0,-100.00,NE,53,0.0,15.0,63,0.00,,,0.00,0.000000,,2013-01-25 13:11:00,
2013-01-25 06:22:00,51.0,39.0,-100.00,NE,53,0.0,15.0,63,0.00,,,0.00,0.000000,,2013-01-25 13:22:00,
2013-01-25 06:53:00,51.0,39.0,-100.00,WNW,298,2.0,6.0,64,0.00,,,0.00,0.000000,,2013-01-25 13:53:00,
2013-01-25 07:03:00,51.0,39.0,-100.00,WNW,298,2.0,6.0,64,0.00,,,0.00,0.000000,,2013-01-25 14:03:00,
2013-01-25 07:12:00,51.0,39.0,-100.00,WNW,298,2.0,6.0,64,0.00,,,0.00,0.000000,,2013-01-25 14:12:00,
2013-01-25 07:23:00,51.0,39.0,-100.00,WNW,298,2.0,6.0,64,0.00,,,0.00,0.000000,,2013-01-25 14:23:00,
2013-01-25 07:53:00,49.0,37.0,-100.00,NNE,18,0.0,9.0,64,0.00,,,0.00,2.000000,,2013-01-25 14:53:00,
2013-01-25 08:02:00,49.0,37.0,-100.00,NNE,18,0.0,9.0,64,0.00,,,0.00,2.000000,,2013-01-25 15:02:00,
2013-01-25 08:12:00,49.0,37.0,-100.00,NNE,18,0.0,9.0,64,0.00,,,0.00,2.000000,,2013-01-25 15:12:00,
2013-01-25 08:22:00,49.0,37.0,-100.00,NNE,18,0.0,9.0,64,0.00,,,0.00,2.000000,,2013-01-25 15:22:00,
2013-01-25 08:53:00,51.0,40.0,-100.00,ESE,118,2.0,8.0,65,0.00,,,0.00,50.000000,,2013-01-25 15:53:00,
2013-01-25 09:03:00,51.0,40.0,-100.00,ESE,118,2.0,8.0,65,0.00,,,0.00,50.000000,,2013-01-25 16:03:00,
2013-01-25 09:12:00,51.0,40.0,-100.00,ESE,118,2.0,8.0,65,0.00,,,0.00,50.000000,,2013-01-25 16:12:00,
2013-01-25 09:22:00,51.0,40.0,-100.00,ESE,118,2.0,8.0,65,0.00,,,0.00,50.000000,,2013-01-25 16:22:00,
2013-01-25 09:53:00,54.0,40.0,-100.00,WSW,258,0.0,3.0,58,0.00,,,0.00,99.000000,,2013-01-25 16:53:00,
2013-01-25 10:02:00,54.0,40.0,-100.00,WSW,258,0.0,3.0,58,0.00,,,0.00,99.000000,,2013-01-25 17:02:00,
2013-01-25 10:12:00,54.0,40.0,-100.00,WSW,258,0.0,3.0,58,0.00,,,0.00,99.000000,,2013-01-25 17:12:00,
2013-01-25 10:22:00,54.0,40.0,-100.00,WSW,258,0.0,3.0,58,0.00,,,0.00,99.000000,,2013-01-25 17:22:00,
2013-01-25 10:53:00,57.0,41.0,-100.00,NW,312,0.0,4.0,54,0.00,,,0.00,126.000000,,2013-01-25 17:53:00,
2013-01-25 11:03:00,57.0,41.0,-100.00,NW,312,0.0,4.0,54,0.00,,,0.00,126.000000,,2013-01-25 18:03:00,
2013-01-25 11:12:00,57.0,41.0,-100.00,NW,312,0.0,4.0,54,0.00,,,0.00,126.000000,,2013-01-25 18:12:00,
2013-01-25 11:23:00,57.0,41.0,-100.00,NW,312,0.0,4.0,54,0.00,,,0.00,126.000000,,2013-01-25 18:23:00,
2013-01-25 11:52:00,55.0,37.0,-100.00,WSW,252,1.0,5.0,51,0.00,,,0.00,190.000000,,2013-01-25 18:52:00,
2013-01-25 12:03:00,55.0,37.0,-100.00,WSW,252,1.0,5.0,51,0.00,,,0.00,190.000000,,2013-01-25 19:03:00,
2013-01-25 12:12:00,55.0,37.0,-100.00,WSW,252,1.0,5.0,51,0.00,,,0.00,190.000000,,2013-01-25 19:12:00,
2013-01-25 12:22:00,55.0,37.0,-100.00,WSW,252,1.0,5.0,51,0.00,,,0.00,190.000000,,2013-01-25 19:22:00,
2013-01-25 12:53:00,57.0,39.0,-100.00,WSW,251,3.0,9.0,50,0.00,,,0.00,288.000000,,2013-01-25 19:53:00,
2013-01-25 13:03:00,57.0,39.0,-100.00,WSW,251,3.0,9.0,50,0.00,,,0.00,288.000000,,2013-01-25 20:03:00,
2013-01-25 13:12:00,57.0,39.0,-100.00,WSW,251,3.0,9.0,50,0.00,,,0.00,288.000000,,2013-01-25 20:12:00,
2013-01-25 13:22:00,57.0,39.0,-100.00,WSW,251,3.0,9.0,50,0.00,,,0.00,288.000000,,2013-01-25 20:22:00,
2013-01-25 13:53:00,60.0,37.0,-100.00,SW,233,5.0,9.0,43,0.00,,,0.00,566.000000,,2013-01-25 20:53:00,
2013-01-25 14:02:00,60.0,37.0,-100.00,SW,233,5.0,9.0,43,0.00,,,0.00,566.000000,,2013-01-25 21:02:00,
2013-01-25 14:12:00,60.0,37.0,-100.00,SW,233,5.0,9.0,43,0.00,,,0.00,566.000000,,2013-01-25 21:12:00,
2013-01-25 14:23:00,60.0,37.0,-100.00,SW,233,5.0,9.0,43,0.00,,,0.00,566.000000,,2013-01-25 21:23:00,
2013-01-25 14:52:00,61.0,39.0,-100.00,SW,225,4.0,10.0,44,0.00,,,0.00,557.000000,,2013-01-25 21:52:00,
2013-01-25 15:03:00,61.0,39.0,-100.00,SW,225,4.0,10.0,44,0.00,,,0.00,557.000000,,2013-01-25 22:03:00,
2013-01-25 15:12:00,61.0,39.0,-100.00,SW,225,4.0,10.0,44,0.00,,,0.00,557.000000,,2013-01-25 22:12:00,
2013-01-25 15:22:00,61.0,39.0,-100.00,SW,225,4.0,10.0,44,0.00,,,0.00,557.000000,,2013-01-25 22:22:00,
2013-01-25 15:53:00,60.0,37.0,-100.00,SW,233,4.0,7.0,42,0.00,,,0.00,394.000000,,2013-01-25 22:53:00,
2013-01-25 16:02:00,60.0,37.0,-100.00,SW,233,4.0,7.0,42,0.00,,,0.00,394.000000,,2013-01-25 23:02:00,
2013-01-25 16:12:00,60.0,37.0,-100.00,SW,233,4.0,7.0,42,0.00,,,0.00,394.000000,,2013-01-25 23:12:00,
2013-01-25 16:22:00,60.0,37.0,-100.00,SW,233,4.0,7.0,42,0.00,,,0.00,394.000000,,2013-01-25 23:22:00,
2013-01-25 16:53:00,58.0,37.0,-100.00,West,260,3.0,9.0,45,0.00,,,0.00,224.000000,,2013-01-25 23:53:00,
2013-01-25 17:02:00,58.0,37.0,-100.00,West,260,3.0,9.0,45,0.00,,,0.00,224.000000,,2013-01-26 00:02:00,
2013-01-25 17:11:00,58.0,37.0,-100.00,West,260,3.0,9.0,45,0.00,,,0.00,224.000000,,2013-01-26 00:11:00,
2013-01-25 17:22:00,58.0,37.0,-100.00,West,260,3.0,9.0,45,0.00,,,0.00,224.000000,,2013-01-26 00:22:00,
2013-01-25 17:53:00,55.0,36.0,-100.00,SW,234,1.0,5.0,49,0.00,,,0.00,75.000000,,2013-01-26 00:53:00,
2013-01-25 18:02:00,55.0,36.0,-100.00,SW,234,1.0,5.0,49,0.00,,,0.00,75.000000,,2013-01-26 01:02:00,
2013-01-25 18:11:00,55.0,36.0,-100.00,SW,234,1.0,5.0,49,0.00,,,0.00,75.000000,,2013-01-26 01:11:00,
2013-01-25 18:22:00,55.0,36.0,-100.00,SW,234,1.0,5.0,49,0.00,,,0.00,75.000000,,2013-01-26 01:22:00,
2013-01-25 18:52:00,53.0,38.0,-100.00,ESE,117,4.0,5.0,57,0.00,,,0.00,1.000000,,2013-01-26 01:52:00,
2013-01-25 19:01:00,53.0,38.0,-100.00,ESE,117,4.0,5.0,57,0.00,,,0.00,1.000000,,2013-01-26 02:01:00,
2013-01-25 19:11:00,53.0,38.0,-100.00,ESE,117,4.0,5.0,57,0.00,,,0.00,1.000000,,2013-01-26 02:11:00,
2013-01-25 19:22:00,53.0,38.0,-100.00,ESE,117,4.0,5.0,57,0.00,,,0.00,1.000000,,2013-01-26 02:22:00,
2013-01-25 19:52:00,53.0,34.0,-100.00,ESE,107,3.0,6.0,49,0.00,,,0.00,0.000000,,2013-01-26 02:52:00,
2013-01-25 20:02:00,53.0,34.0,-100.00,ESE,107,3.0,6.0,49,0.00,,,0.00,0.000000,,2013-01-26 03:02:00,
2013-01-25 20:11:00,53.0,34.0,-100.00,ESE,107,3.0,6.0,49,0.00,,,0.00,0.000000,,2013-01-26 03:11:00,
2013-01-25 20:22:00,53.0,34.0,-100.00,ESE,107,3.0,6.0,49,0.00,,,0.00,0.000000,,2013-01-26 03:22:00,
2013-01-25 20:52:00,52.0,34.0,-100.00,East,82,2.0,5.0,51,0.00,,,0.00,0.000000,,2013-01-26 03:52:00,
2013-01-25 21:02:00,52.0,34.0,-100.00,East,82,2.0,5.0,51,0.00,,,0.00,0.000000,,2013-01-26 04:02:00,
2013-01-25 21:12:00,52.0,34.0,-100.00,East,82,2.0,5.0,51,0.00,,,0.00,0.000000,,2013-01-26 04:12:00,
2013-01-25 21:21:00,52.0,34.0,-100.00,East,82,2.0,5.0,51,0.00,,,0.00,0.000000,,2013-01-26 04:21:00,
2013-01-25 21:52:00,55.0,39.0,-100.00,SE,135,4.0,8.0,55,0.00,,,0.00,0.000000,,2013-01-26 04:52:00,
2013-01-25 22:03:00,55.0,39.0,-100.00,SE,135,4.0,8.0,55,0.00,,,0.00,0.000000,,2013-01-26 05:03:00,
2013-01-25 22:12:00,55.0,39.0,-100.00,SE,135,4.0,8.0,55,0.00,,,0.00,0.000000,,2013-01-26 05:12:00,
2013-01-25 22:23:00,55.0,39.0,-100.00,SE,135,4.0,8.0,55,0.00,,,0.00,0.000000,,2013-01-26 05:23:00,
2013-01-25 22:52:00,56.0,36.0,-100.00,SE,142,6.0,10.0,47,0.00,,,0.00,0.000000,,2013-01-26 05:52:00,
2013-01-25 23:02:00,56.0,36.0,-100.00,SE,142,6.0,10.0,47,0.00,,,0.00,0.000000,,2013-01-26 06:02:00,
2013-01-25 23:12:00,56.0,36.0,-100.00,SE,142,6.0,10.0,47,0.00,,,0.00,0.000000,,2013-01-26 06:12:00,
2013-01-25 23:21:00,56.0,36.0,-100.00,SE,142,6.0,10.0,47,0.00,,,0.00,0.000000,,2013-01-26 06:21:00,
2013-01-25 23:52:00,57.0,36.0,-100.00,SSE,164,4.0,10.0,46,0.00,,,0.00,0.000000,,2013-01-26 06:52:00,